Time,TemperatureF,DewpointF,PressureIn,WindDirection,WindDirectionDegrees,WindSpeedMPH,WindSpeedGustMPH,Humidity,HourlyPrecipIn,Conditions,Clouds,dailyrainin,SolarRadiationWatts/m^2,SoftwareType,DateUTC
2013-04-19 00:05:00,49.0,45.6,30.26,South,178,8.0,8.0,88,0.00,,,0.00,0,Wunderground v.1.15,2013-04-19 07:05:00,
2013-04-19 00:11:00,49.0,45.3,30.25,South,179,9.0,9.0,87,0.00,,,0.00,0,Wunderground v.1.15,2013-04-19 07:11:00,
2013-04-19 00:17:00,49.0,45.3,30.25,SSE,167,4.0,9.0,87,0.00,,,0.00,0,Wunderground v.1.15,2013-04-19 07:17:00,
2013-04-19 00:22:00,49.0,45.3,30.25,South,171,5.0,5.0,87,0.00,,,0.01,0,Wunderground v.1.15,2013-04-19 07:22:00,
2013-04-19 00:28:00,49.0,45.3,30.25,South,172,5.0,6.0,87,0.00,,,0.01,0,Wunderground v.1.15,2013-04-19 07:28:00,
2013-04-19 00:34:00,49.0,45.3,30.25,South,178,6.0,6.0,87,0.00,,,0.01,0,Wunderground v.1.15,2013-04-19 07:34:00,
2013-04-19 00:40:00,49.0,45.3,30.24,South,171,6.0,6.0,87,0.00,,,0.01,0,Wunderground v.1.15,2013-04-19 07:40:00,
2013-04-19 00:45:00,49.0,45.3,30.24,SSE,168,4.0,6.0,87,0.00,,,0.01,0,Wunderground v.1.15,2013-04-19 07:45:00,
2013-04-19 00:51:00,49.0,45.3,30.24,South,173,4.0,5.0,87,0.00,,,0.01,0,Wunderground v.1.15,2013-04-19 07:51:00,
2013-04-19 00:57:00,49.1,45.4,30.24,South,171,5.0,6.0,87,0.00,,,0.01,0,Wunderground v.1.15,2013-04-19 07:57:00,
2013-04-19 01:03:00,49.2,45.5,30.24,South,188,7.0,7.0,87,0.00,,,0.01,0,Wunderground v.1.15,2013-04-19 08:03:00,
2013-04-19 01:09:00,49.4,46.0,30.24,South,170,9.0,9.0,88,0.00,,,0.01,0,Wunderground v.1.15,2013-04-19 08:09:00,
2013-04-19 01:15:00,49.4,46.0,30.24,South,175,6.0,8.0,88,0.00,,,0.02,0,Wunderground v.1.15,2013-04-19 08:15:00,
2013-04-19 01:21:00,49.4,46.0,30.24,South,181,6.0,7.0,88,0.00,,,0.02,0,Wunderground v.1.15,2013-04-19 08:21:00,
2013-04-19 01:27:00,49.4,46.0,30.23,South,175,8.0,8.0,88,0.00,,,0.02,0,Wunderground v.1.15,2013-04-19 08:27:00,
2013-04-19 01:33:00,49.4,46.0,30.23,South,173,6.0,7.0,88,0.00,,,0.02,0,Wunderground v.1.15,2013-04-19 08:33:00,
2013-04-19 01:39:00,49.3,45.9,30.23,SSE,166,5.0,7.0,88,0.00,,,0.02,0,Wunderground v.1.15,2013-04-19 08:39:00,
2013-04-19 01:45:00,49.3,45.9,30.23,SSE,168,6.0,7.0,88,0.00,,,0.02,0,Wunderground v.1.15,2013-04-19 08:45:00,
2013-04-19 01:50:00,49.2,45.8,30.23,SSE,155,7.0,7.0,88,0.00,,,0.02,0,Wunderground v.1.15,2013-04-19 08:50:00,
2013-04-19 01:56:00,49.2,45.8,30.23,South,178,5.0,7.0,88,0.00,,,0.02,0,Wunderground v.1.15,2013-04-19 08:56:00,
2013-04-19 02:01:00,49.2,45.8,30.22,South,188,4.0,7.0,88,0.00,,,0.02,0,Wunderground v.1.15,2013-04-19 09:01:00,
2013-04-19 02:06:00,49.1,45.7,30.22,SSW,192,3.0,7.0,88,0.00,,,0.02,0,Wunderground v.1.15,2013-04-19 09:06:00,
2013-04-19 02:11:00,49.1,45.7,30.22,SSW,198,3.0,4.0,88,0.00,,,0.02,0,Wunderground v.1.15,2013-04-19 09:11:00,
2013-04-19 02:16:00,49.0,45.6,30.21,SSW,200,2.0,8.0,88,0.00,,,0.02,0,Wunderground v.1.15,2013-04-19 09:16:00,
2013-04-19 02:21:00,49.0,45.3,30.21,SSE,156,4.0,7.0,87,0.00,,,0.02,0,Wunderground v.1.15,2013-04-19 09:21:00,
2013-04-19 02:26:00,49.0,45.3,30.21,SSE,149,6.0,7.0,87,0.00,,,0.02,0,Wunderground v.1.15,2013-04-19 09:26:00,
2013-04-19 02:31:00,49.0,45.3,30.21,SSE,157,4.0,6.0,87,0.00,,,0.02,0,Wunderground v.1.15,2013-04-19 09:31:00,
2013-04-19 02:36:00,49.0,45.3,30.20,SSE,159,5.0,6.0,87,0.00,,,0.02,0,Wunderground v.1.15,2013-04-19 09:36:00,
2013-04-19 02:41:00,49.0,45.3,30.20,SSE,159,0.0,4.0,87,0.00,,,0.02,0,Wunderground v.1.15,2013-04-19 09:41:00,
2013-04-19 02:46:00,48.9,45.2,30.19,SSE,159,0.0,4.0,87,0.00,,,0.02,0,Wunderground v.1.15,2013-04-19 09:46:00,
2013-04-19 02:51:00,49.0,45.3,30.19,SSE,159,0.0,2.0,87,0.00,,,0.02,0,Wunderground v.1.15,2013-04-19 09:51:00,
2013-04-19 02:56:00,48.9,45.2,30.19,SSW,196,0.0,7.0,87,0.00,,,0.02,0,Wunderground v.1.15,2013-04-19 09:56:00,
2013-04-19 03:01:00,48.9,45.2,30.19,SSW,196,2.0,6.0,87,0.00,,,0.02,0,Wunderground v.1.15,2013-04-19 10:01:00,
2013-04-19 03:06:00,49.0,45.6,30.19,SSW,197,1.0,7.0,88,0.00,,,0.02,0,Wunderground v.1.15,2013-04-19 10:06:00,
2013-04-19 03:11:00,49.0,45.6,30.18,SSE,165,5.0,6.0,88,0.00,,,0.02,0,Wunderground v.1.15,2013-04-19 10:11:00,
2013-04-19 03:16:00,49.0,45.6,30.18,East,94,0.0,6.0,88,0.00,,,0.02,0,Wunderground v.1.15,2013-04-19 10:16:00,
2013-04-19 03:21:00,49.0,45.6,30.18,East,94,0.0,1.0,88,0.00,,,0.02,0,Wunderground v.1.15,2013-04-19 10:21:00,
2013-04-19 03:26:00,49.0,45.6,30.18,SSE,163,4.0,6.0,88,0.00,,,0.02,0,Wunderground v.1.15,2013-04-19 10:26:00,
2013-04-19 03:31:00,49.0,45.6,30.18,SSE,166,5.0,9.0,88,0.00,,,0.02,0,Wunderground v.1.15,2013-04-19 10:31:00,
2013-04-19 03:36:00,49.1,45.7,30.18,South,175,5.0,9.0,88,0.00,,,0.02,0,Wunderground v.1.15,2013-04-19 10:36:00,
2013-04-19 03:41:00,49.1,45.7,30.17,SSW,194,6.0,6.0,88,0.00,,,0.02,0,Wunderground v.1.15,2013-04-19 10:41:00,
2013-04-19 03:46:00,49.1,46.0,30.17,South,178,5.0,11.0,89,0.00,,,0.02,0,Wunderground v.1.15,2013-04-19 10:46:00,
2013-04-19 03:51:00,49.1,46.0,30.17,South,186,7.0,7.0,89,0.00,,,0.02,0,Wunderground v.1.15,2013-04-19 10:51:00,
2013-04-19 03:56:00,49.2,46.1,30.17,South,186,7.0,9.0,89,0.00,,,0.02,0,Wunderground v.1.15,2013-04-19 10:56:00,
2013-04-19 04:01:00,49.3,46.2,30.16,SE,128,2.0,7.0,89,0.00,,,0.02,0,Wunderground v.1.15,2013-04-19 11:01:00,
2013-04-19 04:06:00,49.3,46.2,30.16,South,171,5.0,8.0,89,0.00,,,0.02,0,Wunderground v.1.15,2013-04-19 11:06:00,
2013-04-19 04:11:00,49.4,46.3,30.16,South,174,6.0,7.0,89,0.00,,,0.02,0,Wunderground v.1.15,2013-04-19 11:11:00,
2013-04-19 04:16:00,49.4,46.3,30.16,South,187,8.0,9.0,89,0.00,,,0.02,0,Wunderground v.1.15,2013-04-19 11:16:00,
2013-04-19 04:21:00,49.3,46.2,30.15,SSE,159,4.0,6.0,89,0.00,,,0.02,0,Wunderground v.1.15,2013-04-19 11:21:00,
2013-04-19 04:26:00,49.4,46.3,30.15,SSE,155,4.0,6.0,89,0.00,,,0.02,0,Wunderground v.1.15,2013-04-19 11:26:00,
2013-04-19 04:31:00,49.3,46.2,30.15,SSE,155,5.0,7.0,89,0.00,,,0.02,0,Wunderground v.1.15,2013-04-19 11:31:00,
2013-04-19 04:36:00,49.2,46.1,30.15,South,170,5.0,8.0,89,0.00,,,0.02,0,Wunderground v.1.15,2013-04-19 11:36:00,
2013-04-19 04:41:00,49.2,46.1,30.15,SSE,167,6.0,8.0,89,0.00,,,0.02,0,Wunderground v.1.15,2013-04-19 11:41:00,
2013-04-19 04:46:00,49.2,46.1,30.15,South,170,2.0,9.0,89,0.00,,,0.02,0,Wunderground v.1.15,2013-04-19 11:46:00,
2013-04-19 04:51:00,49.2,46.1,30.14,SSE,160,2.0,8.0,89,0.00,,,0.02,0,Wunderground v.1.15,2013-04-19 11:51:00,
2013-04-19 04:56:00,49.2,46.1,30.14,SSE,160,5.0,8.0,89,0.00,,,0.02,0,Wunderground v.1.15,2013-04-19 11:56:00,
2013-04-19 05:01:00,49.1,46.0,30.14,SSE,167,4.0,6.0,89,0.00,,,0.02,0,Wunderground v.1.15,2013-04-19 12:01:00,
2013-04-19 05:06:00,49.1,46.0,30.14,South,175,2.0,7.0,89,0.00,,,0.02,0,Wunderground v.1.15,2013-04-19 12:06:00,
2013-04-19 05:11:00,49.1,46.0,30.14,South,175,4.0,6.0,89,0.00,,,0.02,0,Wunderground v.1.15,2013-04-19 12:11:00,
2013-04-19 05:16:00,49.2,46.1,30.14,SSE,161,6.0,9.0,89,0.00,,,0.02,0,Wunderground v.1.15,2013-04-19 12:16:00,
2013-04-19 05:21:00,49.3,46.2,30.14,South,172,6.0,7.0,89,0.00,,,0.02,0,Wunderground v.1.15,2013-04-19 12:21:00,
2013-04-19 05:26:00,49.3,46.2,30.14,SSE,161,4.0,8.0,89,0.00,,,0.02,0,Wunderground v.1.15,2013-04-19 12:26:00,
2013-04-19 05:31:00,49.3,46.2,30.14,SSE,162,2.0,6.0,89,0.00,,,0.02,0,Wunderground v.1.15,2013-04-19 12:31:00,
2013-04-19 05:36:00,49.2,46.1,30.13,SSE,162,4.0,6.0,89,0.00,,,0.02,0,Wunderground v.1.15,2013-04-19 12:36:00,
2013-04-19 05:41:00,49.2,46.1,30.13,SSE,162,2.0,5.0,89,0.00,,,0.02,0,Wunderground v.1.15,2013-04-19 12:41:00,
2013-04-19 05:46:00,49.2,46.1,30.13,SSE,159,4.0,7.0,89,0.00,,,0.03,0,Wunderground v.1.15,2013-04-19 12:46:00,
2013-04-19 05:54:00,49.1,45.7,30.13,South,172,2.0,4.0,88,0.00,,,0.03,0,Wunderground v.1.15,2013-04-19 12:54:00,
2013-04-19 05:59:00,49.1,45.7,30.13,South,172,2.0,6.0,88,0.05,,,0.04,0,Wunderground v.1.15,2013-04-19 12:59:00,
2013-04-19 06:04:00,49.1,45.7,30.13,South,179,5.0,7.0,88,0.10,,,0.05,0,Wunderground v.1.15,2013-04-19 13:04:00,
2013-04-19 06:09:00,49.0,45.6,30.12,South,175,6.0,7.0,88,0.08,,,0.06,0,Wunderground v.1.15,2013-04-19 13:09:00,
2013-04-19 06:14:00,49.0,45.6,30.12,South,175,5.0,7.0,88,0.08,,,0.06,0,Wunderground v.1.15,2013-04-19 13:14:00,
2013-04-19 06:19:00,49.0,45.3,30.12,South,171,6.0,7.0,87,0.08,,,0.07,0,Wunderground v.1.15,2013-04-19 13:19:00,
2013-04-19 06:24:00,49.0,45.3,30.12,South,171,5.0,6.0,87,0.07,,,0.07,0,Wunderground v.1.15,2013-04-19 13:24:00,
2013-04-19 06:29:00,48.9,45.2,30.12,SSW,195,4.0,6.0,87,0.05,,,0.08,0,Wunderground v.1.15,2013-04-19 13:29:00,
2013-04-19 06:34:00,48.9,45.2,30.12,SSW,195,3.0,6.0,87,0.05,,,0.08,0,Wunderground v.1.15,2013-04-19 13:34:00,
2013-04-19 06:39:00,48.9,45.2,30.12,SSW,196,2.0,8.0,87,0.06,,,0.09,0,Wunderground v.1.15,2013-04-19 13:39:00,
2013-04-19 06:44:00,48.9,45.2,30.11,South,178,4.0,8.0,87,0.06,,,0.09,0,Wunderground v.1.15,2013-04-19 13:44:00,
2013-04-19 06:49:00,48.9,45.2,30.11,South,176,6.0,8.0,87,0.08,,,0.10,5,Wunderground v.1.15,2013-04-19 13:49:00,
2013-04-19 06:54:00,48.9,45.2,30.11,South,189,4.0,7.0,87,0.06,,,0.10,5,Wunderground v.1.15,2013-04-19 13:54:00,
2013-04-19 06:59:00,49.0,45.3,30.11,South,184,5.0,10.0,87,0.06,,,0.11,5,Wunderground v.1.15,2013-04-19 13:59:00,
2013-04-19 07:04:00,49.0,45.3,30.11,South,173,4.0,7.0,87,0.06,,,0.11,7,Wunderground v.1.15,2013-04-19 14:04:00,
2013-04-19 07:09:00,49.0,45.3,30.11,South,180,2.0,7.0,87,0.04,,,0.11,11,Wunderground v.1.15,2013-04-19 14:09:00,
2013-04-19 07:14:00,49.1,45.4,30.11,South,180,2.0,6.0,87,0.00,,,0.11,14,Wunderground v.1.15,2013-04-19 14:14:00,
2013-04-19 07:19:00,49.1,45.4,30.11,South,172,2.0,8.0,87,0.00,,,0.12,16,Wunderground v.1.15,2013-04-19 14:19:00,
2013-04-19 07:24:00,49.1,45.4,30.10,South,169,5.0,6.0,87,0.00,,,0.12,16,Wunderground v.1.15,2013-04-19 14:24:00,
2013-04-19 07:29:00,49.2,45.5,30.10,South,180,3.0,8.0,87,0.00,,,0.12,16,Wunderground v.1.15,2013-04-19 14:29:00,
2013-04-19 07:34:00,49.1,45.4,30.10,South,174,4.0,6.0,87,0.00,,,0.12,18,Wunderground v.1.15,2013-04-19 14:34:00,
2013-04-19 07:40:00,49.2,45.5,30.10,SSE,163,5.0,5.0,87,0.00,,,0.13,23,Wunderground v.1.15,2013-04-19 14:40:00,
2013-04-19 07:45:00,49.2,45.5,30.11,South,172,7.0,7.0,87,0.00,,,0.13,26,Wunderground v.1.15,2013-04-19 14:45:00,
2013-04-19 07:50:00,49.3,45.6,30.11,South,183,4.0,5.0,87,0.00,,,0.13,25,Wunderground v.1.15,2013-04-19 14:50:00,
2013-04-19 07:55:00,49.3,45.6,30.10,SSE,158,5.0,7.0,87,0.00,,,0.13,21,Wunderground v.1.15,2013-04-19 14:55:00,
2013-04-19 08:00:00,49.4,45.7,30.10,SSW,201,4.0,4.0,87,0.00,,,0.13,26,Wunderground v.1.15,2013-04-19 15:00:00,
2013-04-19 08:05:00,49.5,45.8,30.10,SSE,151,6.0,8.0,87,0.00,,,0.13,28,Wunderground v.1.15,2013-04-19 15:05:00,
2013-04-19 08:10:00,49.6,46.2,30.10,South,171,5.0,5.0,88,0.00,,,0.13,32,Wunderground v.1.15,2013-04-19 15:10:00,
2013-04-19 08:15:00,49.7,46.3,30.10,South,177,6.0,10.0,88,0.00,,,0.13,42,Wunderground v.1.15,2013-04-19 15:15:00,
2013-04-19 08:20:00,49.8,46.4,30.10,South,173,6.0,10.0,88,0.00,,,0.13,39,Wunderground v.1.15,2013-04-19 15:20:00,
2013-04-19 08:25:00,49.8,46.4,30.09,South,171,5.0,8.0,88,0.00,,,0.14,26,Wunderground v.1.15,2013-04-19 15:25:00,
2013-04-19 08:30:00,49.8,46.4,30.09,South,175,7.0,7.0,88,0.00,,,0.14,28,Wunderground v.1.15,2013-04-19 15:30:00,
2013-04-19 08:35:00,49.8,46.4,30.09,SSE,168,7.0,9.0,88,0.05,,,0.15,30,Wunderground v.1.15,2013-04-19 15:35:00,
2013-04-19 08:40:00,49.7,46.3,30.09,South,173,9.0,9.0,88,0.05,,,0.15,23,Wunderground v.1.15,2013-04-19 15:40:00,
2013-04-19 08:45:00,49.7,46.3,30.09,South,188,4.0,9.0,88,0.05,,,0.15,23,Wunderground v.1.15,2013-04-19 15:45:00,
2013-04-19 08:50:00,49.7,46.3,30.09,South,191,6.0,6.0,88,0.04,,,0.16,28,Wunderground v.1.15,2013-04-19 15:50:00,
2013-04-19 08:55:00,49.7,46.3,30.09,South,188,6.0,10.0,88,0.04,,,0.16,33,Wunderground v.1.15,2013-04-19 15:55:00,
2013-04-19 09:00:00,49.7,46.3,30.09,South,178,7.0,7.0,88,0.06,,,0.17,33,Wunderground v.1.15,2013-04-19 16:00:00,
2013-04-19 09:05:00,49.7,46.3,30.09,South,188,7.0,8.0,88,0.06,,,0.17,39,Wunderground v.1.15,2013-04-19 16:05:00,
2013-04-19 09:10:00,49.7,46.3,30.09,South,191,5.0,5.0,88,0.05,,,0.17,51,Wunderground v.1.15,2013-04-19 16:10:00,
2013-04-19 09:15:00,49.7,46.3,30.09,South,175,7.0,9.0,88,0.04,,,0.17,58,Wunderground v.1.15,2013-04-19 16:15:00,
2013-04-19 09:20:00,49.9,46.5,30.09,South,182,4.0,5.0,88,0.00,,,0.17,72,Wunderground v.1.15,2013-04-19 16:20:00,
2013-04-19 09:25:00,50.0,46.6,30.09,South,169,6.0,9.0,88,0.00,,,0.17,79,Wunderground v.1.15,2013-04-19 16:25:00,
2013-04-19 09:30:00,50.0,46.6,30.09,South,178,5.0,6.0,88,0.00,,,0.17,67,Wunderground v.1.15,2013-04-19 16:30:00,
2013-04-19 09:35:00,50.1,46.7,30.09,South,191,6.0,7.0,88,0.00,,,0.17,65,Wunderground v.1.15,2013-04-19 16:35:00,
2013-04-19 09:40:00,50.2,46.8,30.09,SSW,193,10.0,10.0,88,0.00,,,0.17,74,Wunderground v.1.15,2013-04-19 16:40:00,
2013-04-19 09:45:00,50.3,46.9,30.09,South,189,9.0,13.0,88,0.00,,,0.17,79,Wunderground v.1.15,2013-04-19 16:45:00,
2013-04-19 09:50:00,50.4,47.0,30.08,SSW,197,6.0,8.0,88,0.00,,,0.17,70,Wunderground v.1.15,2013-04-19 16:50:00,
2013-04-19 09:55:00,50.4,47.3,30.08,South,188,10.0,13.0,89,0.00,,,0.17,88,Wunderground v.1.15,2013-04-19 16:55:00,
2013-04-19 10:00:00,50.5,47.4,30.08,South,182,9.0,9.0,89,0.00,,,0.17,97,Wunderground v.1.15,2013-04-19 17:00:00,
2013-04-19 10:05:00,50.5,47.4,30.08,South,177,8.0,10.0,89,0.00,,,0.17,93,Wunderground v.1.15,2013-04-19 17:05:00,
2013-04-19 10:10:00,50.6,47.5,30.08,South,178,9.0,9.0,89,0.00,,,0.17,93,Wunderground v.1.15,2013-04-19 17:10:00,
2013-04-19 10:15:00,50.7,47.6,30.09,SSE,167,6.0,10.0,89,0.00,,,0.17,81,Wunderground v.1.15,2013-04-19 17:15:00,
2013-04-19 10:20:00,50.7,47.6,30.08,South,181,6.0,8.0,89,0.00,,,0.17,84,Wunderground v.1.15,2013-04-19 17:20:00,
2013-04-19 10:25:00,50.7,47.6,30.09,South,186,7.0,11.0,89,0.00,,,0.17,84,Wunderground v.1.15,2013-04-19 17:25:00,
2013-04-19 10:30:00,50.8,47.7,30.09,SSW,192,9.0,12.0,89,0.00,,,0.17,79,Wunderground v.1.15,2013-04-19 17:30:00,
2013-04-19 10:35:00,50.9,47.8,30.09,SSW,201,5.0,13.0,89,0.00,,,0.17,76,Wunderground v.1.15,2013-04-19 17:35:00,
2013-04-19 10:40:00,51.0,47.9,30.09,SSW,193,12.0,12.0,89,0.00,,,0.17,90,Wunderground v.1.15,2013-04-19 17:40:00,
2013-04-19 10:45:00,51.0,47.9,30.09,South,189,11.0,13.0,89,0.00,,,0.18,86,Wunderground v.1.15,2013-04-19 17:45:00,
2013-04-19 10:50:00,50.9,47.8,30.10,South,173,7.0,8.0,89,0.11,,,0.19,88,Wunderground v.1.15,2013-04-19 17:50:00,
2013-04-19 10:55:00,50.8,47.4,30.10,South,180,7.0,13.0,88,0.13,,,0.20,90,Wunderground v.1.15,2013-04-19 17:55:00,
2013-04-19 11:00:00,50.7,47.3,30.10,South,183,8.0,9.0,88,0.07,,,0.21,100,Wunderground v.1.15,2013-04-19 18:00:00,
2013-04-19 11:05:00,50.9,47.5,30.10,South,190,8.0,11.0,88,0.07,,,0.21,120,Wunderground v.1.15,2013-04-19 18:05:00,
2013-04-19 11:10:00,51.0,47.6,30.10,SSW,200,6.0,8.0,88,0.06,,,0.21,116,Wunderground v.1.15,2013-04-19 18:10:00,
2013-04-19 11:15:00,51.1,47.7,30.10,South,185,9.0,11.0,88,0.04,,,0.21,132,Wunderground v.1.15,2013-04-19 18:15:00,
2013-04-19 11:20:00,51.2,47.8,30.10,South,190,10.0,10.0,88,0.00,,,0.21,190,Wunderground v.1.15,2013-04-19 18:20:00,
2013-04-19 11:25:00,51.5,48.1,30.10,South,171,9.0,12.0,88,0.00,,,0.21,236,Wunderground v.1.15,2013-04-19 18:25:00,
2013-04-19 11:30:00,51.8,48.1,30.10,South,180,6.0,8.0,87,0.00,,,0.21,272,Wunderground v.1.15,2013-04-19 18:30:00,
2013-04-19 11:35:00,52.1,48.7,30.10,SSE,160,8.0,11.0,88,0.00,,,0.21,304,Wunderground v.1.15,2013-04-19 18:35:00,
2013-04-19 11:40:00,52.6,48.8,30.10,SSE,167,6.0,9.0,87,0.00,,,0.21,373,Wunderground v.1.15,2013-04-19 18:40:00,
2013-04-19 11:45:00,53.0,49.5,30.10,South,180,6.0,12.0,88,0.00,,,0.21,323,Wunderground v.1.15,2013-04-19 18:45:00,
2013-04-19 11:50:00,53.0,49.8,30.09,South,190,6.0,8.0,89,0.00,,,0.21,274,Wunderground v.1.15,2013-04-19 18:50:00,
2013-04-19 11:55:00,53.1,49.9,30.10,South,183,7.0,12.0,89,0.00,,,0.21,294,Wunderground v.1.15,2013-04-19 18:55:00,
2013-04-19 12:00:00,53.1,49.9,30.10,South,189,10.0,10.0,89,0.00,,,0.21,255,Wunderground v.1.15,2013-04-19 19:00:00,
2013-04-19 12:06:00,53.2,50.0,30.10,South,177,10.0,14.0,89,0.00,,,0.21,313,Wunderground v.1.15,2013-04-19 19:06:00,
2013-04-19 12:11:00,53.4,50.2,30.10,South,191,9.0,10.0,89,0.00,,,0.21,230,Wunderground v.1.15,2013-04-19 19:11:00,
2013-04-19 12:16:00,53.4,50.2,30.10,SSW,202,7.0,12.0,89,0.00,,,0.21,272,Wunderground v.1.15,2013-04-19 19:16:00,
2013-04-19 12:21:00,53.7,50.5,30.10,SSW,197,8.0,9.0,89,0.00,,,0.21,288,Wunderground v.1.15,2013-04-19 19:21:00,
2013-04-19 12:26:00,53.7,50.2,30.10,South,188,9.0,12.0,88,0.00,,,0.21,308,Wunderground v.1.15,2013-04-19 19:26:00,
2013-04-19 12:31:00,54.0,50.5,30.11,SSW,202,10.0,10.0,88,0.00,,,0.21,322,Wunderground v.1.15,2013-04-19 19:31:00,
2013-04-19 12:36:00,54.2,50.7,30.11,SSW,213,5.0,10.0,88,0.00,,,0.21,260,Wunderground v.1.15,2013-04-19 19:36:00,
2013-04-19 12:41:00,54.1,50.3,30.10,South,190,12.0,12.0,87,0.00,,,0.21,258,Wunderground v.1.15,2013-04-19 19:41:00,
2013-04-19 12:46:00,54.1,50.3,30.11,SSW,207,4.0,14.0,87,0.00,,,0.21,258,Wunderground v.1.15,2013-04-19 19:46:00,
2013-04-19 12:51:00,54.0,50.2,30.11,SSW,207,7.0,11.0,87,0.00,,,0.21,262,Wunderground v.1.15,2013-04-19 19:51:00,
2013-04-19 12:56:00,54.1,50.3,30.11,SW,219,11.0,16.0,87,0.00,,,0.21,267,Wunderground v.1.15,2013-04-19 19:56:00,
2013-04-19 13:01:00,53.9,50.1,30.11,WSW,241,10.0,11.0,87,0.00,,,0.21,297,Wunderground v.1.15,2013-04-19 20:01:00,
2013-04-19 13:06:00,54.1,50.0,30.11,WSW,250,4.0,11.0,86,0.00,,,0.21,294,Wunderground v.1.15,2013-04-19 20:06:00,
2013-04-19 13:11:00,54.4,50.0,30.11,SW,221,7.0,12.0,85,0.00,,,0.21,292,Wunderground v.1.15,2013-04-19 20:11:00,
2013-04-19 13:16:00,54.4,50.3,30.11,WSW,242,10.0,12.0,86,0.00,,,0.21,241,Wunderground v.1.15,2013-04-19 20:16:00,
2013-04-19 13:21:00,54.0,49.9,30.12,WSW,257,6.0,8.0,86,0.00,,,0.21,195,Wunderground v.1.15,2013-04-19 20:21:00,
2013-04-19 13:26:00,53.8,49.7,30.12,WSW,251,5.0,12.0,86,0.00,,,0.21,179,Wunderground v.1.15,2013-04-19 20:26:00,
2013-04-19 13:31:00,53.1,49.3,30.12,WSW,240,7.0,10.0,87,0.00,,,0.21,204,Wunderground v.1.15,2013-04-19 20:31:00,
2013-04-19 13:36:00,52.8,49.3,30.12,SW,223,6.0,10.0,88,0.00,,,0.22,234,Wunderground v.1.15,2013-04-19 20:36:00,
2013-04-19 13:41:00,53.0,49.8,30.12,SW,217,6.0,9.0,89,0.00,,,0.22,274,Wunderground v.1.15,2013-04-19 20:41:00,
2013-04-19 13:46:00,53.2,50.0,30.12,SW,221,7.0,9.0,89,0.00,,,0.22,262,Wunderground v.1.15,2013-04-19 20:46:00,
2013-04-19 13:51:00,53.4,50.2,30.12,WSW,238,10.0,10.0,89,0.00,,,0.22,253,Wunderground v.1.15,2013-04-19 20:51:00,
2013-04-19 13:56:00,53.3,50.1,30.13,WSW,242,2.0,10.0,89,0.00,,,0.22,206,Wunderground v.1.15,2013-04-19 20:56:00,
2013-04-19 14:01:00,53.3,50.1,30.13,WSW,254,4.0,6.0,89,0.00,,,0.22,179,Wunderground v.1.15,2013-04-19 21:01:00,
2013-04-19 14:06:00,53.3,50.1,30.13,WSW,254,5.0,6.0,89,0.00,,,0.23,188,Wunderground v.1.15,2013-04-19 21:06:00,
2013-04-19 14:11:00,53.3,50.1,30.13,SW,227,2.0,3.0,89,0.00,,,0.23,207,Wunderground v.1.15,2013-04-19 21:11:00,
2013-04-19 14:16:00,53.6,50.4,30.13,SSW,197,1.0,4.0,89,0.00,,,0.23,237,Wunderground v.1.15,2013-04-19 21:16:00,
2013-04-19 14:21:00,53.7,50.2,30.13,SSW,198,1.0,4.0,88,0.00,,,0.23,227,Wunderground v.1.15,2013-04-19 21:21:00,
2013-04-19 14:26:00,54.0,50.5,30.13,SSW,198,3.0,4.0,88,0.00,,,0.23,206,Wunderground v.1.15,2013-04-19 21:26:00,
2013-04-19 14:31:00,54.0,50.5,30.13,SSW,198,3.0,3.0,88,0.00,,,0.23,163,Wunderground v.1.15,2013-04-19 21:31:00,
2013-04-19 14:36:00,54.1,50.9,30.13,NW,315,2.0,6.0,89,0.00,,,0.23,183,Wunderground v.1.15,2013-04-19 21:36:00,
2013-04-19 14:41:00,53.8,50.6,30.14,NNW,339,5.0,5.0,89,0.00,,,0.23,209,Wunderground v.1.15,2013-04-19 21:41:00,
2013-04-19 14:46:00,53.8,50.3,30.14,NNW,339,2.0,5.0,88,0.00,,,0.23,316,Wunderground v.1.15,2013-04-19 21:46:00,
2013-04-19 14:51:00,54.1,50.9,30.14,NNW,339,1.0,4.0,89,0.00,,,0.23,281,Wunderground v.1.15,2013-04-19 21:51:00,
2013-04-19 14:56:00,54.2,50.7,30.14,NNW,339,1.0,4.0,88,0.00,,,0.23,230,Wunderground v.1.15,2013-04-19 21:56:00,
2013-04-19 15:01:00,54.2,50.7,30.14,NNW,339,1.0,4.0,88,0.00,,,0.23,202,Wunderground v.1.15,2013-04-19 22:01:00,
2013-04-19 15:06:00,54.5,51.0,30.14,North,5,0.0,4.0,88,0.00,,,0.23,193,Wunderground v.1.15,2013-04-19 22:06:00,
2013-04-19 15:11:00,54.7,50.9,30.14,North,5,0.0,2.0,87,0.00,,,0.23,171,Wunderground v.1.15,2013-04-19 22:11:00,
2013-04-19 15:16:00,54.8,51.0,30.14,North,5,0.0,2.0,87,0.00,,,0.23,125,Wunderground v.1.15,2013-04-19 22:16:00,
2013-04-19 15:21:00,54.9,51.1,30.14,North,5,1.0,1.0,87,0.00,,,0.23,105,Wunderground v.1.15,2013-04-19 22:21:00,
2013-04-19 15:26:00,55.0,51.2,30.14,North,5,2.0,3.0,87,0.00,,,0.23,93,Wunderground v.1.15,2013-04-19 22:26:00,
2013-04-19 15:31:00,55.0,51.5,30.14,SSW,196,2.0,4.0,88,0.00,,,0.23,102,Wunderground v.1.15,2013-04-19 22:31:00,
2013-04-19 15:36:00,54.7,51.2,30.14,SE,144,2.0,5.0,88,0.00,,,0.23,58,Wunderground v.1.15,2013-04-19 22:36:00,
2013-04-19 15:41:00,54.6,51.4,30.14,SE,144,1.0,4.0,89,0.00,,,0.23,77,Wunderground v.1.15,2013-04-19 22:41:00,
2013-04-19 15:46:00,54.5,51.0,30.14,WSW,237,4.0,4.0,88,0.00,,,0.23,98,Wunderground v.1.15,2013-04-19 22:46:00,
2013-04-19 15:51:00,54.4,50.6,30.15,West,266,4.0,6.0,87,0.00,,,0.23,105,Wunderground v.1.15,2013-04-19 22:51:00,
2013-04-19 15:56:00,54.2,50.4,30.15,West,266,4.0,6.0,87,0.00,,,0.23,109,Wunderground v.1.15,2013-04-19 22:56:00,
2013-04-19 16:01:00,54.1,50.3,30.15,WSW,257,2.0,5.0,87,0.00,,,0.23,100,Wunderground v.1.15,2013-04-19 23:01:00,
2013-04-19 16:06:00,54.1,50.3,30.15,WNW,286,6.0,7.0,87,0.00,,,0.23,142,Wunderground v.1.15,2013-04-19 23:06:00,
2013-04-19 16:11:00,54.0,50.2,30.15,WNW,282,8.0,8.0,87,0.00,,,0.23,156,Wunderground v.1.15,2013-04-19 23:11:00,
2013-04-19 16:16:00,54.1,49.7,30.15,WNW,290,4.0,12.0,85,0.00,,,0.23,355,Wunderground v.1.15,2013-04-19 23:16:00,
2013-04-19 16:21:00,54.3,49.6,30.16,NW,313,8.0,11.0,84,0.00,,,0.23,373,Wunderground v.1.15,2013-04-19 23:21:00,
2013-04-19 16:26:00,54.7,50.0,30.15,NNW,329,10.0,12.0,84,0.00,,,0.23,352,Wunderground v.1.15,2013-04-19 23:26:00,
2013-04-19 16:31:00,55.4,50.0,30.15,WNW,293,19.0,19.0,82,0.00,,,0.23,489,Wunderground v.1.15,2013-04-19 23:31:00,
2013-04-19 16:36:00,55.3,49.2,30.15,NW,307,17.0,19.0,80,0.00,,,0.23,636,Wunderground v.1.15,2013-04-19 23:36:00,
2013-04-19 16:41:00,55.3,49.2,30.16,NW,315,7.0,20.0,80,0.00,,,0.23,652,Wunderground v.1.15,2013-04-19 23:41:00,
2013-04-19 16:46:00,55.0,48.6,30.16,West,271,12.0,20.0,79,0.00,,,0.23,260,Wunderground v.1.15,2013-04-19 23:46:00,
2013-04-19 16:51:00,54.9,48.2,30.16,WNW,286,16.0,21.0,78,0.00,,,0.23,348,Wunderground v.1.15,2013-04-19 23:51:00,
2013-04-19 16:56:00,54.6,47.9,30.16,WNW,297,14.0,21.0,78,0.00,,,0.23,202,Wunderground v.1.15,2013-04-19 23:56:00,
2013-04-19 17:01:00,54.4,48.0,30.16,NW,319,11.0,18.0,79,0.00,,,0.23,186,Wunderground v.1.15,2013-04-20 00:01:00,
2013-04-19 17:06:00,54.2,47.8,30.16,NW,320,10.0,18.0,79,0.00,,,0.23,244,Wunderground v.1.15,2013-04-20 00:06:00,
2013-04-19 17:11:00,54.2,47.5,30.16,NW,321,11.0,16.0,78,0.00,,,0.23,149,Wunderground v.1.15,2013-04-20 00:11:00,
2013-04-19 17:16:00,54.1,47.7,30.17,WNW,290,13.0,16.0,79,0.00,,,0.23,327,Wunderground v.1.15,2013-04-20 00:16:00,
2013-04-19 17:21:00,54.3,47.6,30.17,WNW,301,9.0,12.0,78,0.00,,,0.23,236,Wunderground v.1.15,2013-04-20 00:21:00,
2013-04-19 17:26:00,54.6,47.5,30.17,NNW,345,5.0,18.0,77,0.00,,,0.23,236,Wunderground v.1.15,2013-04-20 00:26:00,
2013-04-19 17:31:00,55.1,48.4,30.17,NW,306,11.0,11.0,78,0.00,,,0.23,503,Wunderground v.1.15,2013-04-20 00:31:00,
2013-04-19 17:36:00,55.4,48.0,30.17,West,264,13.0,18.0,76,0.00,,,0.23,239,Wunderground v.1.15,2013-04-20 00:36:00,
2013-04-19 17:41:00,55.4,47.6,30.17,NW,318,9.0,17.0,75,0.00,,,0.23,483,Wunderground v.1.15,2013-04-20 00:41:00,
2013-04-19 17:46:00,55.5,47.7,30.17,WNW,288,7.0,17.0,75,0.00,,,0.23,473,Wunderground v.1.15,2013-04-20 00:46:00,
2013-04-19 17:54:00,55.8,48.0,30.17,WNW,302,6.0,8.0,75,0.00,,,0.23,408,Wunderground v.1.15,2013-04-20 00:54:00,
2013-04-19 17:59:00,55.7,48.2,30.18,WNW,282,6.0,9.0,76,0.00,,,0.23,390,Wunderground v.1.15,2013-04-20 00:59:00,
2013-04-19 18:04:00,55.7,47.9,30.18,WNW,301,9.0,11.0,75,0.00,,,0.23,232,Wunderground v.1.15,2013-04-20 01:04:00,
2013-04-19 18:09:00,55.4,47.6,30.18,WNW,300,7.0,12.0,75,0.00,,,0.23,158,Wunderground v.1.15,2013-04-20 01:09:00,
2013-04-19 18:14:00,55.1,47.7,30.18,WNW,302,5.0,11.0,76,0.00,,,0.23,134,Wunderground v.1.15,2013-04-20 01:14:00,
2013-04-19 18:19:00,55.0,47.6,30.18,WNW,296,9.0,11.0,76,0.00,,,0.23,120,Wunderground v.1.15,2013-04-20 01:19:00,
2013-04-19 18:24:00,54.8,47.7,30.18,West,278,6.0,11.0,77,0.00,,,0.23,86,Wunderground v.1.15,2013-04-20 01:24:00,
2013-04-19 18:29:00,54.6,47.5,30.19,West,281,7.0,12.0,77,0.00,,,0.23,81,Wunderground v.1.15,2013-04-20 01:29:00,
2013-04-19 18:34:00,54.4,47.7,30.19,WNW,294,7.0,11.0,78,0.00,,,0.23,93,Wunderground v.1.15,2013-04-20 01:34:00,
2013-04-19 18:39:00,54.2,47.5,30.19,West,280,6.0,11.0,78,0.00,,,0.23,69,Wunderground v.1.15,2013-04-20 01:39:00,
2013-04-19 18:44:00,54.1,47.4,30.19,West,274,5.0,6.0,78,0.00,,,0.23,42,Wunderground v.1.15,2013-04-20 01:44:00,
2013-04-19 18:49:00,54.0,47.6,30.19,WNW,299,4.0,7.0,79,0.00,,,0.23,53,Wunderground v.1.15,2013-04-20 01:49:00,
2013-04-19 18:54:00,53.9,47.5,30.19,WNW,298,4.0,5.0,79,0.00,,,0.23,33,Wunderground v.1.15,2013-04-20 01:54:00,
2013-04-19 19:00:00,53.8,47.4,30.19,WNW,292,2.0,4.0,79,0.00,,,0.23,28,Wunderground v.1.15,2013-04-20 02:00:00,
2013-04-19 19:05:00,53.7,47.3,30.19,NNW,335,2.0,6.0,79,0.00,,,0.23,21,Wunderground v.1.15,2013-04-20 02:05:00,
2013-04-19 19:10:00,53.2,46.9,30.19,North,350,4.0,4.0,79,0.00,,,0.23,25,Wunderground v.1.15,2013-04-20 02:10:00,
2013-04-19 19:15:00,52.9,46.9,30.19,SW,214,0.0,5.0,80,0.00,,,0.23,21,Wunderground v.1.15,2013-04-20 02:15:00,
2013-04-19 19:20:00,52.7,47.4,30.20,West,262,2.0,4.0,82,0.00,,,0.23,26,Wunderground v.1.15,2013-04-20 02:20:00,
2013-04-19 19:25:00,52.4,47.1,30.19,SSW,203,6.0,10.0,82,0.00,,,0.23,19,Wunderground v.1.15,2013-04-20 02:25:00,
2013-04-19 19:30:00,52.2,47.2,30.20,SSW,211,6.0,8.0,83,0.00,,,0.23,19,Wunderground v.1.15,2013-04-20 02:30:00,
2013-04-19 19:35:00,52.1,46.8,30.20,SW,226,10.0,11.0,82,0.00,,,0.23,16,Wunderground v.1.15,2013-04-20 02:35:00,
2013-04-19 19:40:00,51.9,46.9,30.20,SW,220,5.0,7.0,83,0.00,,,0.23,11,Wunderground v.1.15,2013-04-20 02:40:00,
2013-04-19 19:45:00,51.8,46.8,30.20,WSW,246,6.0,10.0,83,0.00,,,0.23,9,Wunderground v.1.15,2013-04-20 02:45:00,
2013-04-19 19:50:00,51.7,46.7,30.20,SW,230,8.0,8.0,83,0.00,,,0.23,7,Wunderground v.1.15,2013-04-20 02:50:00,
2013-04-19 19:55:00,51.5,46.8,30.20,SW,235,5.0,11.0,84,0.00,,,0.23,0,Wunderground v.1.15,2013-04-20 02:55:00,
2013-04-19 20:00:00,51.4,46.7,30.20,SSW,202,5.0,6.0,84,0.00,,,0.23,0,Wunderground v.1.15,2013-04-20 03:00:00,
2013-04-19 20:05:00,51.0,47.0,30.21,SSW,211,4.0,10.0,86,0.00,,,0.23,0,Wunderground v.1.15,2013-04-20 03:05:00,
2013-04-19 20:10:00,50.7,46.7,30.20,SSW,212,8.0,9.0,86,0.00,,,0.23,0,Wunderground v.1.15,2013-04-20 03:10:00,
2013-04-19 20:15:00,50.4,46.7,30.21,SSW,199,7.0,10.0,87,0.00,,,0.23,0,Wunderground v.1.15,2013-04-20 03:15:00,
2013-04-19 20:20:00,50.3,46.6,30.21,SSW,205,7.0,7.0,87,0.00,,,0.23,0,Wunderground v.1.15,2013-04-20 03:20:00,
2013-04-19 20:25:00,50.2,46.8,30.21,SSW,199,4.0,8.0,88,0.00,,,0.23,0,Wunderground v.1.15,2013-04-20 03:25:00,
2013-04-19 20:30:00,50.1,46.7,30.21,SSW,205,3.0,5.0,88,0.00,,,0.23,0,Wunderground v.1.15,2013-04-20 03:30:00,
2013-04-19 20:35:00,50.0,46.6,30.21,South,187,6.0,9.0,88,0.00,,,0.23,0,Wunderground v.1.15,2013-04-20 03:35:00,
2013-04-19 20:40:00,49.9,46.5,30.21,SSW,203,4.0,7.0,88,0.00,,,0.23,0,Wunderground v.1.15,2013-04-20 03:40:00,
2013-04-19 20:45:00,49.7,46.3,30.22,SSW,202,5.0,9.0,88,0.00,,,0.23,0,Wunderground v.1.15,2013-04-20 03:45:00,
2013-04-19 20:50:00,49.7,46.3,30.22,SSW,198,4.0,6.0,88,0.00,,,0.23,0,Wunderground v.1.15,2013-04-20 03:50:00,
2013-04-19 20:55:00,49.7,46.3,30.22,SSW,199,0.0,6.0,88,0.00,,,0.23,0,Wunderground v.1.15,2013-04-20 03:55:00,
2013-04-19 21:00:00,49.7,46.3,30.22,SSW,199,1.0,2.0,88,0.00,,,0.23,0,Wunderground v.1.15,2013-04-20 04:00:00,
2013-04-19 21:01:00,49.7,46.3,30.22,SSW,199,2.0,2.0,88,0.00,,,0.23,0,Wunderground v.1.15,2013-04-20 04:01:00,
2013-04-19 21:06:00,49.6,46.2,30.22,SSW,199,0.0,2.0,88,0.00,,,0.23,0,Wunderground v.1.15,2013-04-20 04:06:00,
2013-04-19 21:11:00,49.6,46.2,30.22,SSW,199,0.0,0.0,88,0.00,,,0.23,0,Wunderground v.1.15,2013-04-20 04:11:00,
2013-04-19 21:16:00,49.6,46.2,30.22,SSW,199,2.0,2.0,88,0.00,,,0.23,0,Wunderground v.1.15,2013-04-20 04:16:00,
2013-04-19 21:21:00,49.6,46.2,30.22,South,173,0.0,1.0,88,0.00,,,0.23,0,Wunderground v.1.15,2013-04-20 04:21:00,
2013-04-19 21:26:00,49.6,46.2,30.22,South,173,1.0,2.0,88,0.00,,,0.23,0,Wunderground v.1.15,2013-04-20 04:26:00,
2013-04-19 21:31:00,49.5,46.1,30.23,South,173,1.0,2.0,88,0.00,,,0.23,0,Wunderground v.1.15,2013-04-20 04:31:00,
2013-04-19 21:36:00,49.5,46.1,30.23,South,173,1.0,4.0,88,0.00,,,0.23,0,Wunderground v.1.15,2013-04-20 04:36:00,
2013-04-19 21:41:00,49.4,46.0,30.23,South,173,2.0,4.0,88,0.00,,,0.23,0,Wunderground v.1.15,2013-04-20 04:41:00,
2013-04-19 21:46:00,49.4,46.0,30.23,South,173,1.0,4.0,88,0.00,,,0.23,0,Wunderground v.1.15,2013-04-20 04:46:00,
2013-04-19 21:51:00,49.3,46.2,30.23,South,173,6.0,6.0,89,0.00,,,0.23,0,Wunderground v.1.15,2013-04-20 04:51:00,
2013-04-19 21:56:00,49.2,46.1,30.24,South,188,5.0,7.0,89,0.00,,,0.23,0,Wunderground v.1.15,2013-04-20 04:56:00,
2013-04-19 22:02:00,49.2,46.1,30.23,SSW,192,4.0,5.0,89,0.00,,,0.23,0,Wunderground v.1.15,2013-04-20 05:02:00,
2013-04-19 22:07:00,49.2,46.1,30.23,SSW,192,3.0,5.0,89,0.00,,,0.23,0,Wunderground v.1.15,2013-04-20 05:07:00,
2013-04-19 22:12:00,49.2,46.1,30.24,SSW,192,3.0,4.0,89,0.00,,,0.23,0,Wunderground v.1.15,2013-04-20 05:12:00,
2013-04-19 22:17:00,49.1,46.0,30.23,SSW,192,4.0,4.0,89,0.00,,,0.23,0,Wunderground v.1.15,2013-04-20 05:17:00,
2013-04-19 22:22:00,49.1,46.0,30.23,SSW,192,4.0,5.0,89,0.00,,,0.23,0,Wunderground v.1.15,2013-04-20 05:22:00,
2013-04-19 22:27:00,49.1,46.0,30.23,SSW,192,4.0,6.0,89,0.00,,,0.23,0,Wunderground v.1.15,2013-04-20 05:27:00,
2013-04-19 22:32:00,49.0,45.9,30.23,SSW,192,2.0,4.0,89,0.00,,,0.23,0,Wunderground v.1.15,2013-04-20 05:32:00,
2013-04-19 22:37:00,48.9,45.8,30.24,SSW,192,4.0,5.0,89,0.00,,,0.23,0,Wunderground v.1.15,2013-04-20 05:37:00,
2013-04-19 22:42:00,48.9,45.8,30.24,SSW,195,8.0,8.0,89,0.00,,,0.23,0,Wunderground v.1.15,2013-04-20 05:42:00,
2013-04-19 22:47:00,48.9,45.8,30.24,SSW,199,6.0,9.0,89,0.00,,,0.23,0,Wunderground v.1.15,2013-04-20 05:47:00,
2013-04-19 22:52:00,48.8,45.7,30.24,SSW,202,4.0,8.0,89,0.00,,,0.23,0,Wunderground v.1.15,2013-04-20 05:52:00,
2013-04-19 22:57:00,48.8,45.7,30.24,SSW,200,6.0,8.0,89,0.00,,,0.23,0,Wunderground v.1.15,2013-04-20 05:57:00,
2013-04-19 23:02:00,48.8,45.7,30.24,SSW,196,4.0,6.0,89,0.00,,,0.23,0,Wunderground v.1.15,2013-04-20 06:02:00,
2013-04-19 23:07:00,48.8,45.7,30.24,SSW,196,2.0,6.0,89,0.00,,,0.23,0,Wunderground v.1.15,2013-04-20 06:07:00,
2013-04-19 23:12:00,48.8,45.7,30.24,SSW,202,3.0,5.0,89,0.00,,,0.23,0,Wunderground v.1.15,2013-04-20 06:12:00,
2013-04-19 23:17:00,48.8,45.7,30.24,SSW,202,2.0,5.0,89,0.00,,,0.23,0,Wunderground v.1.15,2013-04-20 06:17:00,
2013-04-19 23:22:00,48.8,45.7,30.25,SSW,202,2.0,4.0,89,0.00,,,0.23,0,Wunderground v.1.15,2013-04-20 06:22:00,
2013-04-19 23:27:00,48.9,45.8,30.25,WSW,242,5.0,5.0,89,0.00,,,0.23,0,Wunderground v.1.15,2013-04-20 06:27:00,
2013-04-19 23:32:00,49.0,45.9,30.25,WSW,243,2.0,2.0,89,0.00,,,0.23,0,Wunderground v.1.15,2013-04-20 06:32:00,
2013-04-19 23:37:00,49.1,46.0,30.25,WSW,243,0.0,2.0,89,0.00,,,0.23,0,Wunderground v.1.15,2013-04-20 06:37:00,
2013-04-19 23:42:00,49.0,45.9,30.24,WSW,243,0.0,1.0,89,0.00,,,0.23,0,Wunderground v.1.15,2013-04-20 06:42:00,
2013-04-19 23:47:00,48.9,45.8,30.24,WSW,243,0.0,1.0,89,0.00,,,0.23,0,Wunderground v.1.15,2013-04-20 06:47:00,
2013-04-19 23:54:00,48.8,45.7,30.24,WSW,243,3.0,3.0,89,0.00,,,0.23,0,Wunderground v.1.15,2013-04-20 06:54:00,
2013-04-19 23:59:00,48.7,45.6,30.24,SW,219,3.0,5.0,89,0.00,,,0.23,0,Wunderground v.1.15,2013-04-20 06:59:00,